Boone Lake Weather Center

Moon Phase Calendar



Boone Lake Water Level
Online Cameras

 


      

Current Conditions in Oak Grove
11/27/2021 10:12:33 AM

35°F
Feels Like 35
Clouds
Humidity
60%
Pressure
30.15"
Wind
0
Dew Point
23°F
UV Index
1/10 (Low)
Visibility
6 mi

Hourly Forecast

Date & Time Sat, Nov 27
10:00 AM
Sat, Nov 27
11:00 AM
Sat, Nov 27
12:00 PM
Sat, Nov 27
1:00 PM
Sat, Nov 27
2:00 PM
Sat, Nov 27
3:00 PM
Sat, Nov 27
4:00 PM
Sat, Nov 27
5:00 PM
Sat, Nov 27
6:00 PM
Sat, Nov 27
7:00 PM
Sat, Nov 27
8:00 PM
Sat, Nov 27
9:00 PM
Sat, Nov 27
10:00 PM
Sat, Nov 27
11:00 PM
Sun, Nov 28
12:00 AM
Sun, Nov 28
1:00 AM
Sun, Nov 28
2:00 AM
Sun, Nov 28
3:00 AM
Sun, Nov 28
4:00 AM
Sun, Nov 28
5:00 AM
Sun, Nov 28
6:00 AM
Sun, Nov 28
7:00 AM
Sun, Nov 28
8:00 AM
Sun, Nov 28
9:00 AM
Sun, Nov 28
10:00 AM
Sun, Nov 28
11:00 AM
Sun, Nov 28
12:00 PM
Sun, Nov 28
1:00 PM
Sun, Nov 28
2:00 PM
Sun, Nov 28
3:00 PM
Sun, Nov 28
4:00 PM
Sun, Nov 28
5:00 PM
Sun, Nov 28
6:00 PM
Sun, Nov 28
7:00 PM
Sun, Nov 28
8:00 PM
Sun, Nov 28
9:00 PM
Sun, Nov 28
10:00 PM
Sun, Nov 28
11:00 PM
Mon, Nov 29
12:00 AM
Mon, Nov 29
1:00 AM
Mon, Nov 29
2:00 AM
Mon, Nov 29
3:00 AM
Mon, Nov 29
4:00 AM
Mon, Nov 29
5:00 AM
Mon, Nov 29
6:00 AM
Mon, Nov 29
7:00 AM
Mon, Nov 29
8:00 AM
Mon, Nov 29
9:00 AM
Condition
Clouds

Clouds

Clouds

Clouds

Clear

Clear

Clear

Clouds

Clouds

Clouds

Clear

Clouds

Clouds

Clouds

Clouds

Clouds

Clouds

Clouds

Clouds

Clouds

Clouds

Clouds

Clouds

Clouds

Clouds

Clouds

Clouds

Clouds

Clouds

Clouds

Clouds

Clouds

Clouds

Clouds

Clouds

Clouds

Clouds

Clouds

Clouds

Clouds

Clear

Clear

Clouds

Clouds

Clouds

Clouds

Clouds

Clouds
Temperature 35°F37°F40°F43°F47°F50°F48°F42°F39°F38°F37°F36°F36°F35°F35°F35°F34°F34°F34°F34°F33°F33°F34°F39°F44°F47°F49°F50°F51°F50°F49°F46°F43°F41°F39°F37°F35°F34°F33°F32°F31°F29°F28°F27°F27°F27°F28°F32°F
Feels Like 32°F33°F35°F39°F43°F46°F46°F39°F36°F34°F34°F34°F36°F35°F32°F31°F31°F31°F31°F30°F30°F29°F31°F36°F39°F43°F46°F47°F48°F48°F45°F42°F38°F36°F34°F32°F30°F29°F27°F26°F25°F24°F25°F27°F27°F27°F28°F32°F
Cloudiness 20%17%15%12%10%6%6%15%18%21%8%13%20%27%39%48%80%72%82%70%76%80%97%97%92%90%83%86%100%100%100%100%100%100%97%57%40%32%28%25%7%8%11%14%26%37%99%59%
Visibility 6 mi6 mi6 mi6 mi6 mi6 mi6 mi6 mi6 mi6 mi6 mi6 mi6 mi6 mi6 mi6 mi6 mi6 mi6 mi6 mi6 mi6 mi6 mi6 mi6 mi6 mi6 mi6 mi6 mi6 mi6 mi6 mi6 mi6 mi6 mi6 mi6 mi6 mi6 mi6 mi6 mi6 mi6 mi6 mi6 mi6 mi6 mi6 mi
Precipitation 0%0%0%0%0%0%0%0%0%0%0%0%0%0%0%0%0%0%0%0%0%0%0%0%0%0%0%0%0%0%0%0%0%0%0%0%0%0%0%0%0%0%0%0%0%0%0%0%
Humidity 60%54%48%41%36%32%40%50%55%58%61%63%64%65%66%69%71%72%72%73%73%73%70%61%54%52%51%52%53%56%61%69%79%84%86%89%92%94%95%96%96%95%95%95%94%92%87%73%
Dew Point 23°F23°F23°F23°F23°F21°F24°F24°F24°F24°F24°F24°F24°F24°F24°F25°F25°F25°F25°F25°F25°F25°F25°F26°F27°F29°F31°F32°F33°F34°F35°F36°F36°F36°F35°F33°F32°F31°F31°F30°F29°F27°F26°F25°F25°F24°F24°F23°F
Pressure 30.15"30.15"30.12"30.09"30.06"30.03"30"30.03"30.03"30.06"30.06"30.03"30.03"30.03"30.03"30.06"30.03"30.03"30.03"30.03"30.03"30.06"30.06"30.06"30.03"30.03"30"29.97"29.94"29.94"29.94"29.97"30"30.03"30.06"30.09"30.09"30.12"30.12"30.12"30.12"30.15"30.15"30.15"30.18"30.21"30.21"30.24"
Wind Speed 3.4 mph4.4 mph6.1 mph7.4 mph8.7 mph7.9 mph5.7 mph4.2 mph4.1 mph4.4 mph3.8 mph3.4 mph2.2 mph2.4 mph3.7 mph4.4 mph3.6 mph3.5 mph3.5 mph4 mph3.5 mph4.3 mph4 mph4.8 mph7.3 mph8.6 mph9.4 mph9.9 mph9.8 mph9.8 mph8.8 mph8.5 mph7 mph7.5 mph7.8 mph7.2 mph5.9 mph5.4 mph5.8 mph5.5 mph5.4 mph4.4 mph3.1 mph2.5 mph2.2 mph1.5 mph0.9 mph1.8 mph
Wind
Direction
240°
WSW
245°
WSW
250°
WSW
252°
WSW
250°
WSW
246°
WSW
240°
WSW
230°
SW
206°
SSW
198°
SSW
187°
S
165°
SSE
187°
S
194°
SSW
199°
SSW
200°
SSW
199°
SSW
196°
SSW
199°
SSW
207°
SSW
215°
SW
209°
SSW
218°
SW
237°
WSW
247°
WSW
253°
WSW
255°
WSW
256°
WSW
263°
W
263°
W
265°
W
265°
W
266°
W
272°
W
274°
W
268°
W
266°
W
257°
WSW
246°
WSW
258°
WSW
249°
WSW
261°
W
262°
W
268°
W
288°
WNW
248°
WSW
289°
WNW
265°
W

Daily Forecast

Date High Low Precip. Humidity
Today
Nov 27

Clouds
50 °F
27 °F
0%
48%
Sunday
Nov 28

Clouds
51 °F
33 °F
0%
51%
Monday
Nov 29

Clouds
42 °F
27 °F
0%
39%
Tuesday
Nov 30

Clear
53 °F
31 °F
0%
46%
Wednesday
Dec 1

Clouds
56 °F
39 °F
0%
59%
Thursday
Dec 2

Clouds
60 °F
40 °F
0%
62%
Friday
Dec 3

Rain
62 °F
49 °F
20%
56%
Saturday
Dec 4

Snow
57 °F
32 °F
100%
90%
Sunday
Dec 5

Clouds
43 °F
25 °F
17%
34%
Monday
Dec 6

Clear
45 °F
26 °F
0%
44%
Tuesday
Dec 7

Clouds
45 °F
24 °F
0%
25%
Wednesday
Dec 8

Rain
46 °F
32 °F
100%
91%
Thursday
Dec 9

Rain
60 °F
47 °F
78%
77%
Friday
Dec 10

Clouds
56 °F
48 °F
0%
82%
Saturday
Dec 11

Rain
51 °F
33 °F
66%
70%
Sunday
Dec 12

Clear
53 °F
29 °F
0%
24%

Temperature 8-14 Day Outlook



Precipitation 8-14 Day Outlook




Quick Links
Boone Lake News
Boone Lake Photos
Boone Lake Videos




About Us
Contact Us
Site Map
Search Site
Advertise With Us
   
Boone.USLakes.info
THE BOONE LAKE WEBSITE

Copyright 2021, Lakes Online
Privacy    |    Legal